Atlantic - Newfoundland: Past 24 Hour Conditions

 

La Scie

07:30 PM NDT 20 August 2014
This table is a summary of hourly weather conditions for the past 24 hours.
Date / Time
(NDT)
Wind(knots) Conditions Visibility(km) Pressure(kPa) Air tempC) Relative humidity(%) Dew pointC)
20 August 2014
19:30 S 6 N/A N/A 100.9 14 100 14
18:30 S 7 N/A N/A 100.9 15 100 15
17:30 S 4 N/A N/A 100.9 16 100 16
16:30 SSW 5 N/A N/A 100.9 16 98 15
15:30 S 5 N/A N/A 100.8 16 95 16
14:30 SSW 5 N/A N/A 100.9 17 89 16
13:30 SW 6 N/A N/A 100.9 18 83 16
12:30 WSW 4 N/A N/A 100.9 17 91 16
11:30 W 4 N/A N/A 100.9 17 100 17
10:30 W 5 N/A N/A 100.9 16 100 16
9:30 W 3 N/A N/A 100.8 15 100 15
8:30 W 3 N/A N/A 100.8 15 100 15
7:30 W 3 N/A N/A 100.8 15 100 15
6:30 W 1 N/A N/A 100.7 14 100 14
5:30 WSW 3 N/A N/A 100.7 15 100 15
4:30 WSW 5 N/A N/A 100.7 15 100 15
3:30 WSW 4 N/A N/A 100.6 15 100 15
2:30 WSW 3 N/A N/A 100.6 15 100 15
1:30 WSW 3 N/A N/A 100.6 15 100 15
0:30 WSW 3 N/A N/A 100.5 15 100 15
19 August 2014
23:30 WSW 3 N/A N/A 100.5 16 100 16
22:30 WSW 5 N/A N/A 100.5 16 100 16
21:30 WSW 5 N/A N/A 100.5 15 100 15
20:30 WSW 5 N/A N/A 100.5 16 100 16
19:30 WSW 7 gust 16 N/A N/A 100.4 16 100 16
 
Map of Atlantic - Newfoundland marine weather areas Southwestern Grand Banks - 44138 Banquereau - 44139 Tail of the Bank - 44140 Nickerson Bank - 44251 Northeast Burgeo Bank - 44255 Blanc-Sablon Airport Cap Whittle Chevery Natashquan Airport Heath Point Miscou Island Grand Étang Ingonish Beach North Mountain St.Paul Island J.A. Douglas McCurdy Sydney Airport Charlottetown Airport East Point North Cape Argentia Bonavista Burgeo Cape Race Corner Brook Daniel's Harbour Englee Ferolle Point La Scie Port aux Basques Rocky Harbour Sagona Island St. Anthony Airport St. John's Int'l Airport St. Lawrence Stephenville Airport Twillingate Winterland Wreckhouse Cartwright Airport Mary's Harbour Grates Cove Pool's Island Marticot Island Long Pond Îles de la Madeleine Airport
Legend: buoyBuoy land stationLand Station